TimeEDT,TemperatureF,Dew PointF,Humidity,Sea Level PressureIn,VisibilityMPH,Wind Direction,Wind SpeedMPH,Gust SpeedMPH,PrecipitationIn,Events,Conditions,WindDirDegrees,DateUTC
12:15 AM,66.0,54.5,66,30.05,10.0,SSW,5.8,-,N/A,,Clear,200,2013-09-29 04:15:00
12:35 AM,66.6,54.1,64,30.05,10.0,SSW,5.8,-,N/A,,Clear,200,2013-09-29 04:35:00
12:55 AM,64.9,54.0,68,30.05,10.0,South,5.8,-,N/A,,Clear,190,2013-09-29 04:55:00
1:15 AM,64.4,54.0,69,30.05,10.0,SSW,4.6,-,N/A,,Clear,200,2013-09-29 05:15:00
1:35 AM,64.4,54.0,69,30.05,10.0,SSW,5.8,-,N/A,,Clear,200,2013-09-29 05:35:00
1:55 AM,63.7,54.0,71,30.05,10.0,South,4.6,-,N/A,,Clear,190,2013-09-29 05:55:00
2:15 AM,63.5,54.1,72,30.05,10.0,South,5.8,-,N/A,,Clear,190,2013-09-29 06:15:00
2:35 AM,63.5,54.1,72,30.05,10.0,South,5.8,-,N/A,,Clear,190,2013-09-29 06:35:00
2:55 AM,64.2,54.5,71,30.04,10.0,South,5.8,-,N/A,,Mostly Cloudy,190,2013-09-29 06:55:00
3:15 AM,65.5,54.0,66,30.04,10.0,SSW,5.8,-,N/A,,Overcast,200,2013-09-29 07:15:00
3:35 AM,66.2,53.8,64,30.03,10.0,SSW,5.8,-,N/A,,Overcast,200,2013-09-29 07:35:00
3:55 AM,66.2,53.8,64,30.02,10.0,SSW,6.9,-,N/A,,Overcast,200,2013-09-29 07:55:00
4:15 AM,66.2,53.8,64,30.02,10.0,SSW,5.8,-,N/A,,Overcast,200,2013-09-29 08:15:00
4:35 AM,66.6,53.8,63,30.02,10.0,SSW,8.1,-,N/A,,Overcast,200,2013-09-29 08:35:00
4:55 AM,66.6,53.8,63,30.02,10.0,SW,6.9,-,N/A,,Overcast,220,2013-09-29 08:55:00
5:15 AM,66.4,53.8,64,30.01,10.0,SSW,8.1,-,N/A,,Overcast,210,2013-09-29 09:15:00
5:35 AM,66.2,54.0,65,30.01,10.0,SSW,4.6,-,N/A,,Overcast,210,2013-09-29 09:35:00
5:55 AM,65.8,53.8,65,30.01,10.0,SW,4.6,-,N/A,,Overcast,220,2013-09-29 09:55:00
6:15 AM,64.6,55.0,71,30.01,10.0,SSW,8.1,-,N/A,Rain,Rain,210,2013-09-29 10:15:00
6:35 AM,62.6,56.5,80,30.02,5.0,SSW,4.6,-,0.05,Rain,Rain,210,2013-09-29 10:35:00
6:55 AM,62.8,57.4,82,30.02,10.0,SSW,5.8,-,0.06,Rain,Light Rain,210,2013-09-29 10:55:00
7:15 AM,62.6,57.6,84,30.02,10.0,SW,4.6,-,N/A,,Overcast,220,2013-09-29 11:15:00
7:35 AM,62.2,57.2,84,30.02,10.0,SSW,3.5,-,N/A,,Light Drizzle,200,2013-09-29 11:35:00
7:55 AM,62.1,57.2,84,30.03,7.0,South,4.6,-,0.01,Rain,Rain,190,2013-09-29 11:55:00
8:15 AM,61.7,57.4,86,30.03,5.0,SSW,3.5,-,0.03,Rain,Rain,200,2013-09-29 12:15:00
8:35 AM,61.7,57.7,87,30.03,5.0,SSW,4.6,-,0.05,Rain,Light Rain,200,2013-09-29 12:35:00
8:55 AM,61.9,58.1,87,30.02,4.0,SSW,4.6,-,0.08,Rain,Light Rain,200,2013-09-29 12:55:00
9:15 AM,61.9,58.5,89,30.03,2.5,SSW,4.6,-,0.05,Rain,Light Rain,210,2013-09-29 13:15:00
9:35 AM,62.1,58.6,89,30.03,3.0,SSW,5.8,-,0.10,Rain,Rain,210,2013-09-29 13:35:00
9:55 AM,62.1,58.8,89,30.03,4.0,SSW,4.6,-,0.13,Rain,Rain,210,2013-09-29 13:55:00
10:15 AM,62.2,59.0,89,30.03,5.0,SSW,4.6,-,0.01,Rain,Rain,200,2013-09-29 14:15:00
10:35 AM,62.6,59.2,89,30.03,2.5,SW,6.9,-,0.03,Rain,Rain,220,2013-09-29 14:35:00
10:55 AM,62.6,59.4,89,30.03,3.0,SSW,3.5,-,0.04,,Drizzle,210,2013-09-29 14:55:00
11:15 AM,62.8,59.7,90,30.03,1.8,SSW,3.5,-,0.01,,Heavy Drizzle,210,2013-09-29 15:15:00
11:35 AM,63.1,59.9,89,30.03,5.0,SW,4.6,-,0.01,,Light Drizzle,220,2013-09-29 15:35:00
11:55 AM,63.5,60.1,89,30.03,10.0,WSW,4.6,-,0.01,,Overcast,240,2013-09-29 15:55:00
12:15 PM,63.5,60.1,89,30.03,5.0,WSW,8.1,-,N/A,,Overcast,250,2013-09-29 16:15:00
12:35 PM,63.5,60.1,89,30.04,1.5,WSW,6.9,-,N/A,Rain,Rain,250,2013-09-29 16:35:00
12:55 PM,63.3,60.1,89,30.03,1.0,WNW,5.8,-,0.01,,Heavy Drizzle,290,2013-09-29 16:55:00
1:15 PM,63.1,59.9,89,30.03,2.5,West,3.5,-,N/A,,Light Drizzle,270,2013-09-29 17:15:00
1:35 PM,64.0,60.6,89,30.03,10.0,West,4.6,-,N/A,,Overcast,280,2013-09-29 17:35:00
1:55 PM,64.4,60.8,88,30.03,10.0,West,4.6,-,N/A,,Overcast,270,2013-09-29 17:55:00
2:15 PM,64.4,60.3,86,30.02,3.0,West,4.6,-,N/A,,Overcast,270,2013-09-29 18:15:00
2:35 PM,63.9,60.1,87,30.01,3.0,WSW,4.6,-,N/A,,Light Drizzle,250,2013-09-29 18:35:00
2:55 PM,63.9,60.1,87,30.01,4.0,NW,5.8,-,N/A,Rain,Light Rain,310,2013-09-29 18:55:00
3:15 PM,63.5,59.9,88,30.00,7.0,NW,5.8,-,N/A,,Overcast,320,2013-09-29 19:15:00
3:35 PM,62.8,59.2,88,30.01,2.5,NW,5.8,-,N/A,,Overcast,320,2013-09-29 19:35:00
3:55 PM,63.0,59.5,89,30.01,2.0,Calm,Calm,-,N/A,,Light Drizzle,0,2013-09-29 19:55:00
4:15 PM,63.7,59.9,87,30.00,10.0,Calm,Calm,-,N/A,,Overcast,0,2013-09-29 20:15:00
4:35 PM,63.7,59.4,86,30.00,3.0,Calm,Calm,-,N/A,,Haze,0,2013-09-29 20:35:00
4:55 PM,63.5,59.2,86,30.00,10.0,Calm,Calm,-,N/A,,Overcast,0,2013-09-29 20:55:00
5:15 PM,63.5,59.0,85,30.00,10.0,Calm,Calm,-,N/A,,Overcast,0,2013-09-29 21:15:00
5:35 PM,65.3,60.1,83,29.99,10.0,Calm,Calm,-,N/A,,Overcast,0,2013-09-29 21:35:00
5:55 PM,65.3,59.2,81,30.00,10.0,Calm,Calm,-,N/A,,Overcast,0,2013-09-29 21:55:00
6:15 PM,65.3,59.0,80,30.00,10.0,Calm,Calm,-,N/A,,Overcast,0,2013-09-29 22:15:00
6:35 PM,66.0,59.4,79,30.00,10.0,East,3.5,-,N/A,,Overcast,80,2013-09-29 22:35:00
6:55 PM,64.9,59.2,82,30.00,10.0,ESE,3.5,-,N/A,,Mostly Cloudy,120,2013-09-29 22:55:00
7:15 PM,63.9,58.6,83,30.00,10.0,SE,3.5,-,N/A,,Scattered Clouds,140,2013-09-29 23:15:00
7:35 PM,62.4,58.1,86,30.00,10.0,SE,3.5,-,N/A,,Clear,140,2013-09-29 23:35:00
7:55 PM,61.0,57.4,88,30.00,10.0,Calm,Calm,-,N/A,,Scattered Clouds,0,2013-09-29 23:55:00
8:15 PM,61.0,57.6,88,30.01,10.0,Calm,Calm,-,N/A,,Mostly Cloudy,0,2013-09-30 00:15:00
8:35 PM,61.0,57.7,89,30.01,10.0,Calm,Calm,-,N/A,,Overcast,0,2013-09-30 00:35:00
8:55 PM,58.3,55.0,89,30.02,4.0,Calm,Calm,-,N/A,,Scattered Clouds,0,2013-09-30 00:55:00
9:15 PM,56.5,53.6,90,30.02,0.5,Calm,Calm,-,N/A,Fog,Fog,0,2013-09-30 01:15:00
9:35 PM,55.4,52.3,89,30.02,0.5,Calm,Calm,-,N/A,Fog,Fog,0,2013-09-30 01:35:00
9:55 PM,54.7,52.0,91,30.02,0.2,Calm,Calm,-,N/A,Fog,Fog,0,2013-09-30 01:55:00
10:15 PM,54.1,51.3,90,30.01,0.2,Calm,Calm,-,N/A,Fog,Fog,0,2013-09-30 02:15:00
10:35 PM,53.8,51.1,91,30.01,0.2,Calm,Calm,-,N/A,Fog,Fog,0,2013-09-30 02:35:00
10:55 PM,54.0,51.3,91,30.01,0.2,Calm,Calm,-,N/A,Fog,Fog,0,2013-09-30 02:55:00
11:15 PM,55.4,52.7,91,30.01,0.5,Calm,Calm,-,N/A,Fog,Fog,0,2013-09-30 03:15:00
11:35 PM,56.3,53.6,91,30.01,3.0,Calm,Calm,-,N/A,,Overcast,0,2013-09-30 03:35:00
11:55 PM,56.3,53.6,91,30.01,4.0,Calm,Calm,-,N/A,,Overcast,0,2013-09-30 03:55:00